{"data":{"norad_id":60278,"intl_designator":"2024-132A","name":"STARLINK-32156","alt_names":[],"object_type":"PAYLOAD","status":"ACTIVE","operator":null,"country":"US","launch_date":"2024-07-28","launch_site_code":"AFETR","launch_vehicle":null,"mission":null,"orbit_class":"UNKNOWN","rcs_meters":null,"size_class":null,"mass_kg":null,"dimensions":null,"purposes":["comms"],"wikipedia_slug":null,"has_3d_model":false,"image_url":null,"decayed_at":null,"tle_current":{"epoch":"2026-05-25T01:20:18.763008Z","epoch_age_seconds":64178,"freshness":"FRESH","line1":"1 60278U 24132A   26145.05577272 -.00000745  00000+0 -13048-4 0  9995","line2":"2 60278  53.1591  57.6267 0000862 109.9988 250.1105 15.30197781104474","mean_motion":15.30197781,"eccentricity":8.62e-5,"inclination_deg":53.1591,"raan_deg":57.6267,"arg_perigee_deg":109.9988,"mean_anomaly_deg":250.1105,"bstar":-1.3048e-5,"rev_number":10447,"period_min":94.105482172308,"perigee_km":474.63093544185,"apogee_km":475.81245448086,"semimajor_km":6853.3586949614,"source":"CELESTRAK","updated_at":"2026-05-25T13:38:19.203457Z"}}}